Location: Canazei
(46.4667°N, 11.7667°E)
Time: 05:57:16
(UTC+00:00)

Cosmos 2298 Rocket - Pass Details

Date: 21 April 2021
Orbit: 777 x 783 km, 74.0° (Epoch: 15 May)

Event Time Altitude Azimuth Distance (km) Brightness Sun altitude
Exits shadow 03:24:40 - 214° (SW) 2,547 6.2 -8.8°
Reaches altitude 10° 03:25:15 10° 215° (SW) 2,327 6.0 -8.8°
Maximum altitude 03:30:27 59° 295° (WNW) 899 4.2 -8.0°
Drops below altitude 10° 03:35:43 10° 15° (NNE) 2,339 7.1 -7.1°
Sets 03:38:09 0° 20° (NNE) 3,270 8.0 -6.8°
